TimeHST,TemperatureF,Dew PointF,Humidity,Sea Level PressureIn,VisibilityMPH,Wind Direction,Wind SpeedMPH,Gust SpeedMPH,PrecipitationIn,Events,Conditions,WindDirDegrees,DateUTC
12:54 AM,66.9,62.1,84,30.11,10.0,NE,4.6,-,N/A,,Partly Cloudy,40,2013-03-07 10:54:00
1:54 AM,64.0,60.1,87,30.10,10.0,SE,6.9,-,N/A,,Partly Cloudy,130,2013-03-07 11:54:00
2:54 AM,63.0,59.0,87,30.08,10.0,SSE,6.9,-,N/A,,Partly Cloudy,160,2013-03-07 12:54:00
3:54 AM,60.1,57.9,93,30.06,10.0,SSW,4.6,-,N/A,,Clear,200,2013-03-07 13:54:00
4:54 AM,63.0,59.0,87,30.07,10.0,Calm,Calm,-,N/A,,Overcast,0,2013-03-07 14:54:00
5:54 AM,64.0,59.0,84,30.08,10.0,East,5.8,-,N/A,,Mostly Cloudy,100,2013-03-07 15:54:00
6:54 AM,64.0,60.1,87,30.09,10.0,SE,6.9,-,N/A,,Scattered Clouds,130,2013-03-07 16:54:00
7:54 AM,64.0,59.0,84,30.10,10.0,Calm,Calm,-,N/A,,Scattered Clouds,0,2013-03-07 17:54:00
8:54 AM,73.0,61.0,66,30.11,10.0,ESE,3.5,-,N/A,,Scattered Clouds,110,2013-03-07 18:54:00
9:54 AM,77.0,64.9,66,30.12,10.0,NNE,12.7,21.9,N/A,,Scattered Clouds,20,2013-03-07 19:54:00
10:54 AM,77.0,66.9,71,30.11,10.0,NE,13.8,-,N/A,,Scattered Clouds,40,2013-03-07 20:54:00
11:54 AM,78.1,68.0,71,30.09,10.0,NE,15.0,20.7,N/A,,Scattered Clouds,50,2013-03-07 21:54:00
12:54 PM,81.0,66.9,62,30.05,10.0,NNE,13.8,-,N/A,,Scattered Clouds,30,2013-03-07 22:54:00
1:54 PM,80.1,66.9,64,30.03,10.0,NE,18.4,-,N/A,,Scattered Clouds,40,2013-03-07 23:54:00
2:54 PM,81.0,66.9,62,30.01,10.0,North,15.0,-,N/A,,Scattered Clouds,10,2013-03-08 00:54:00
3:54 PM,78.1,66.0,66,30.01,10.0,NNE,17.3,-,N/A,,Scattered Clouds,30,2013-03-08 01:54:00
4:54 PM,77.0,66.9,71,30.01,10.0,NNE,15.0,-,N/A,,Scattered Clouds,30,2013-03-08 02:54:00
5:54 PM,73.9,66.0,76,30.02,10.0,NNE,13.8,-,N/A,,Scattered Clouds,30,2013-03-08 03:54:00
6:54 PM,73.0,66.0,79,30.04,10.0,NE,10.4,-,N/A,,Mostly Cloudy,50,2013-03-08 04:54:00
7:54 PM,71.1,64.9,81,30.06,10.0,Calm,Calm,-,N/A,,Scattered Clouds,0,2013-03-08 05:54:00
8:54 PM,71.1,66.9,87,30.07,10.0,West,4.6,-,N/A,,Scattered Clouds,270,2013-03-08 06:54:00
9:54 PM,70.0,66.0,87,30.07,10.0,WSW,3.5,-,N/A,,Scattered Clouds,250,2013-03-08 07:54:00
10:54 PM,66.0,64.0,93,30.07,10.0,SSE,5.8,-,N/A,,Partly Cloudy,150,2013-03-08 08:54:00
11:54 PM,64.0,62.1,93,30.06,10.0,SSE,5.8,-,N/A,,Partly Cloudy,160,2013-03-08 09:54:00